Wetterdaten: Sonntag, 15.05.2016
Datum Zeit Auen-Temp. Temp gefhlt Luftfeuchte Luftdruck Regen Wind Richtung Richtung Sonnenschein Taupunkt Windben
15.05.2016 00:00 4,6 C 4,0 C 86 % 1013,9 hPa 0,0 mm 8,6 km/h (2 Bft) SW 225 0 min 2,5 C 8,9 km/h (2 Bft)
15.05.2016 00:05 4,6 C 4,1 C 87 % 1013,9 hPa 0,7 mm 7,7 km/h (2 Bft) S 180 0 min 2,6 C 5,7 km/h (1 Bft)
15.05.2016 00:10 4,5 C 4,1 C 87 % 1013,9 hPa 0,0 mm 7,2 km/h (2 Bft) S 180 0 min 2,5 C 8,3 km/h (2 Bft)
15.05.2016 00:15 4,4 C 4,1 C 87 % 1014,1 hPa 0,0 mm 6,0 km/h (2 Bft) SW 225 0 min 2,4 C 12,8 km/h (3 Bft)
15.05.2016 00:20 4,4 C 4,1 C 87 % 1014,1 hPa 0,0 mm 4,5 km/h (1 Bft) S 180 0 min 2,4 C 0,0 km/h (0 Bft)
15.05.2016 00:25 4,3 C 4,1 C 87 % 1014,1 hPa 0,0 mm 2,7 km/h (1 Bft) W-SW 247 0 min 2,3 C 0,0 km/h (0 Bft)
15.05.2016 00:30 4,3 C 4,0 C 87 % 1014,1 hPa 0,0 mm 2,1 km/h (1 Bft) W 270 0 min 2,3 C 0,0 km/h (0 Bft)
15.05.2016 00:35 4,3 C 4,0 C 87 % 1014,2 hPa 0,0 mm 0,9 km/h (0 Bft) W-SW 247 0 min 2,3 C 0,0 km/h (0 Bft)
15.05.2016 00:40 4,2 C 4,0 C 87 % 1014,2 hPa 0,0 mm 0,9 km/h (0 Bft) N-NW 337 0 min 2,2 C 0,0 km/h (0 Bft)
15.05.2016 00:45 4,2 C 4,0 C 87 % 1014,2 hPa 0,0 mm 1,5 km/h (1 Bft) W-SW 247 0 min 2,2 C 0,0 km/h (0 Bft)
15.05.2016 00:50 4,2 C 3,9 C 87 % 1014,2 hPa 0,0 mm 0,9 km/h (0 Bft) W-SW 247 0 min 2,2 C 0,0 km/h (0 Bft)
15.05.2016 00:55 4,1 C 3,9 C 87 % 1014,3 hPa 0,0 mm 1,5 km/h (1 Bft) W-NW 292 0 min 2,1 C 0,0 km/h (0 Bft)
15.05.2016 01:00 4,1 C 3,9 C 87 % 1014,3 hPa 0,0 mm 1,8 km/h (1 Bft) N-NW 337 0 min 2,1 C 0,0 km/h (0 Bft)
15.05.2016 01:05 4,1 C 3,9 C 88 % 1014,3 hPa 0,0 mm 0,6 km/h (0 Bft) W-SW 247 0 min 2,3 C 3,9 km/h (1 Bft)
15.05.2016 01:10 4,1 C 3,9 C 88 % 1014,3 hPa 0,0 mm 0,3 km/h (0 Bft) W 270 0 min 2,3 C 8,0 km/h (2 Bft)
15.05.2016 01:15 4,0 C 3,8 C 88 % 1014,4 hPa 0,0 mm 2,1 km/h (1 Bft) O-SO 112 0 min 2,2 C 3,6 km/h (1 Bft)
15.05.2016 01:20 4,0 C 3,8 C 88 % 1014,4 hPa 0,0 mm 2,1 km/h (1 Bft) W 270 0 min 2,2 C 0,0 km/h (0 Bft)
15.05.2016 01:25 4,0 C 3,8 C 88 % 1014,4 hPa 0,0 mm 0,3 km/h (0 Bft) S 180 0 min 2,2 C 0,0 km/h (0 Bft)
15.05.2016 01:27 4,0 C 3,8 C 88 % 1014,4 hPa 0,0 mm 0,0 km/h (0 Bft) N 360 0 min 2,2 C 0,0 km/h (0 Bft)
15.05.2016 01:29 4,0 C 3,8 C 88 % 1014,4 hPa 0,0 mm 0,0 km/h (0 Bft) N 360 0 min 2,2 C 0,0 km/h (0 Bft)
15.05.2016 01:30 4,0 C 3,8 C 88 % 1014,4 hPa 0,0 mm 0,0 km/h (0 Bft) N 360 0 min 2,2 C 0,0 km/h (0 Bft)
15.05.2016 01:35 3,9 C 3,7 C 89 % 1014,6 hPa 0,0 mm 0,6 km/h (0 Bft) SW 225 0 min 2,3 C 0,0 km/h (0 Bft)
15.05.2016 01:40 3,9 C 3,7 C 89 % 1014,6 hPa 0,0 mm 0,9 km/h (0 Bft) SO 135 0 min 2,3 C 0,0 km/h (0 Bft)
15.05.2016 01:45 3,9 C 3,7 C 89 % 1014,6 hPa 0,0 mm 0,6 km/h (0 Bft) SW 225 0 min 2,3 C 0,0 km/h (0 Bft)
15.05.2016 01:50 3,9 C 3,7 C 89 % 1014,6 hPa 0,0 mm 0,0 km/h (0 Bft) S-SW 202 0 min 2,3 C 0,0 km/h (0 Bft)
15.05.2016 01:55 3,9 C 3,7 C 89 % 1014,6 hPa 0,0 mm 0,9 km/h (0 Bft) SO 135 0 min 2,3 C 3,6 km/h (1 Bft)
15.05.2016 02:00 3,9 C 3,7 C 90 % 1014,6 hPa 0,0 mm 0,9 km/h (0 Bft) S 180 0 min 2,4 C 0,0 km/h (0 Bft)
15.05.2016 02:05 3,9 C 3,7 C 90 % 1014,6 hPa 0,0 mm 0,6 km/h (0 Bft) S-SO 157 0 min 2,4 C 0,0 km/h (0 Bft)
15.05.2016 02:10 3,8 C 3,6 C 90 % 1014,6 hPa 0,0 mm 0,3 km/h (0 Bft) W 270 0 min 2,3 C 0,0 km/h (0 Bft)
15.05.2016 02:15 3,9 C 3,7 C 90 % 1014,5 hPa 0,0 mm 0,6 km/h (0 Bft) SW 225 0 min 2,4 C 5,1 km/h (1 Bft)
15.05.2016 02:20 4,0 C 3,8 C 89 % 1014,5 hPa 0,0 mm 0,9 km/h (0 Bft) O-NO 67 0 min 2,4 C 0,0 km/h (0 Bft)
15.05.2016 02:25 3,9 C 3,7 C 90 % 1014,5 hPa 0,0 mm 1,5 km/h (1 Bft) W 270 0 min 2,4 C 0,0 km/h (0 Bft)
15.05.2016 02:30 3,9 C 3,7 C 90 % 1014,5 hPa 0,0 mm 0,9 km/h (0 Bft) S-SW 202 0 min 2,4 C 0,0 km/h (0 Bft)
15.05.2016 02:35 3,9 C 3,7 C 90 % 1014,4 hPa 0,0 mm 0,6 km/h (0 Bft) W-SW 247 0 min 2,4 C 8,9 km/h (2 Bft)
15.05.2016 02:40 3,9 C 3,7 C 90 % 1014,4 hPa 0,0 mm 0,9 km/h (0 Bft) S-SO 157 0 min 2,4 C 0,0 km/h (0 Bft)
15.05.2016 02:45 3,9 C 3,7 C 90 % 1014,4 hPa 0,0 mm 1,8 km/h (1 Bft) S 180 0 min 2,4 C 3,6 km/h (1 Bft)
15.05.2016 02:50 3,9 C 3,7 C 90 % 1014,4 hPa 0,0 mm 3,3 km/h (1 Bft) S 180 0 min 2,4 C 4,5 km/h (1 Bft)
15.05.2016 02:55 4,0 C 3,7 C 90 % 1014,4 hPa 0,0 mm 5,7 km/h (1 Bft) S-SO 157 0 min 2,5 C 7,7 km/h (2 Bft)
15.05.2016 03:00 4,1 C 3,9 C 90 % 1014,4 hPa 0,0 mm 5,1 km/h (1 Bft) S-SO 157 0 min 2,6 C 5,1 km/h (1 Bft)
15.05.2016 03:05 4,1 C 3,8 C 90 % 1014,4 hPa 0,0 mm 4,8 km/h (1 Bft) S-SO 157 0 min 2,6 C 4,5 km/h (1 Bft)
15.05.2016 03:10 4,0 C 3,8 C 90 % 1014,4 hPa 0,0 mm 3,3 km/h (1 Bft) SO 135 0 min 2,5 C 0,0 km/h (0 Bft)
15.05.2016 03:15 4,0 C 3,8 C 90 % 1014,4 hPa 0,0 mm 1,5 km/h (1 Bft) S-SO 157 0 min 2,5 C 0,0 km/h (0 Bft)
15.05.2016 03:20 4,0 C 3,8 C 90 % 1014,4 hPa 0,0 mm 0,6 km/h (0 Bft) SO 135 0 min 2,5 C 0,0 km/h (0 Bft)
15.05.2016 03:25 4,0 C 3,8 C 90 % 1014,4 hPa 0,0 mm 0,0 km/h (0 Bft) S-SO 157 0 min 2,5 C 0,0 km/h (0 Bft)
15.05.2016 03:30 4,0 C 3,8 C 90 % 1014,4 hPa 0,0 mm 0,0 km/h (0 Bft) O-NO 67 0 min 2,5 C 0,0 km/h (0 Bft)
15.05.2016 03:35 4,0 C 3,8 C 90 % 1014,5 hPa 0,0 mm 0,0 km/h (0 Bft) SO 135 0 min 2,5 C 0,0 km/h (0 Bft)
15.05.2016 03:40 4,0 C 3,8 C 91 % 1014,5 hPa 0,0 mm 0,3 km/h (0 Bft) SO 135 0 min 2,7 C 0,0 km/h (0 Bft)
15.05.2016 03:45 4,0 C 3,8 C 91 % 1014,5 hPa 0,0 mm 0,3 km/h (0 Bft) O-SO 112 0 min 2,7 C 0,0 km/h (0 Bft)
15.05.2016 03:50 4,0 C 3,8 C 91 % 1014,5 hPa 0,0 mm 0,0 km/h (0 Bft) NW 315 0 min 2,7 C 0,0 km/h (0 Bft)
15.05.2016 03:55 4,0 C 3,8 C 91 % 1014,7 hPa 0,0 mm 0,0 km/h (0 Bft) S-SO 157 0 min 2,7 C 0,0 km/h (0 Bft)
15.05.2016 04:00 4,0 C 3,8 C 91 % 1014,7 hPa 0,0 mm 0,0 km/h (0 Bft) SO 135 0 min 2,7 C 0,0 km/h (0 Bft)
15.05.2016 04:05 4,0 C 3,8 C 91 % 1014,7 hPa 0,0 mm 0,9 km/h (0 Bft) S-SW 202 0 min 2,7 C 7,2 km/h (2 Bft)
15.05.2016 04:10 4,1 C 3,9 C 91 % 1014,7 hPa 0,0 mm 1,5 km/h (1 Bft) SW 225 0 min 2,8 C 0,0 km/h (0 Bft)
15.05.2016 04:15 4,2 C 4,0 C 91 % 1014,6 hPa 0,0 mm 0,9 km/h (0 Bft) SW 225 0 min 2,9 C 0,0 km/h (0 Bft)
15.05.2016 04:20 4,2 C 4,0 C 91 % 1014,6 hPa 0,0 mm 0,9 km/h (0 Bft) S-SO 157 0 min 2,9 C 3,0 km/h (1 Bft)
15.05.2016 04:25 4,1 C 3,9 C 91 % 1014,6 hPa 0,0 mm 1,8 km/h (1 Bft) S 180 0 min 2,8 C 7,7 km/h (2 Bft)
15.05.2016 04:27 4,2 C 4,0 C 91 % 1014,6 hPa 0,0 mm 3,3 km/h (1 Bft) W-SW 247 0 min 2,9 C 3,6 km/h (1 Bft)
15.05.2016 04:30 4,2 C 4,0 C 91 % 1014,6 hPa 0,0 mm 3,3 km/h (1 Bft) W-SW 247 0 min 2,9 C 3,6 km/h (1 Bft)
15.05.2016 04:35 4,2 C 4,0 C 91 % 1014,9 hPa 0,0 mm 3,6 km/h (1 Bft) W 270 0 min 2,9 C 6,9 km/h (2 Bft)
15.05.2016 04:36 4,2 C 4,0 C 91 % 1014,9 hPa 0,0 mm 3,6 km/h (1 Bft) W 270 0 min 2,9 C 6,9 km/h (2 Bft)
15.05.2016 04:40 4,2 C 4,0 C 91 % 1014,9 hPa 0,0 mm 2,1 km/h (1 Bft) W-SW 247 0 min 2,9 C 0,0 km/h (0 Bft)
15.05.2016 04:45 4,2 C 4,0 C 91 % 1014,9 hPa 0,0 mm 0,9 km/h (0 Bft) W 270 0 min 2,9 C 0,0 km/h (0 Bft)
15.05.2016 04:50 4,2 C 3,9 C 91 % 1014,9 hPa 0,0 mm 0,0 km/h (0 Bft) N-NO 22 0 min 2,9 C 0,0 km/h (0 Bft)
15.05.2016 04:55 4,2 C 3,9 C 90 % 1014,9 hPa 0,0 mm 0,6 km/h (0 Bft) SW 225 0 min 2,7 C 0,0 km/h (0 Bft)
15.05.2016 05:00 4,2 C 3,9 C 90 % 1014,9 hPa 0,0 mm 1,5 km/h (1 Bft) W-NW 292 0 min 2,7 C 4,8 km/h (1 Bft)
15.05.2016 05:05 4,1 C 3,8 C 90 % 1014,9 hPa 0,0 mm 1,5 km/h (1 Bft) W-SW 247 0 min 2,6 C 3,9 km/h (1 Bft)
15.05.2016 05:10 4,1 C 3,8 C 90 % 1014,9 hPa 0,0 mm 1,2 km/h (1 Bft) NW 315 0 min 2,6 C 0,0 km/h (0 Bft)
15.05.2016 05:15 4,0 C 3,7 C 90 % 1014,9 hPa 0,0 mm 1,8 km/h (1 Bft) SW 225 0 min 2,5 C 8,3 km/h (2 Bft)
15.05.2016 05:20 3,9 C 3,6 C 90 % 1014,9 hPa 0,0 mm 1,8 km/h (1 Bft) SW 225 0 min 2,4 C 0,0 km/h (0 Bft)
15.05.2016 05:25 3,8 C 3,5 C 90 % 1014,9 hPa 0,0 mm 0,9 km/h (0 Bft) N-NO 22 0 min 2,3 C 3,0 km/h (1 Bft)
15.05.2016 05:30 3,8 C 3,5 C 90 % 1014,9 hPa 0,0 mm 0,9 km/h (0 Bft) W 270 0 min 2,3 C 3,9 km/h (1 Bft)
15.05.2016 05:35 3,8 C 3,5 C 90 % 1015,0 hPa 0,0 mm 2,1 km/h (1 Bft) S-SO 157 0 min 2,3 C 6,0 km/h (2 Bft)
15.05.2016 05:40 3,8 C 3,5 C 90 % 1015,0 hPa 0,0 mm 2,1 km/h (1 Bft) S-SW 202 0 min 2,3 C 5,7 km/h (1 Bft)
15.05.2016 05:45 3,8 C 3,5 C 90 % 1015,0 hPa 0,0 mm 2,4 km/h (1 Bft) W 270 0 min 2,3 C 3,3 km/h (1 Bft)
15.05.2016 05:50 3,7 C 3,4 C 90 % 1015,0 hPa 0,0 mm 2,7 km/h (1 Bft) S-SW 202 0 min 2,2 C 5,7 km/h (1 Bft)
15.05.2016 05:55 3,7 C 3,3 C 89 % 1015,1 hPa 0,0 mm 3,6 km/h (1 Bft) S-SW 202 0 min 2,1 C 5,7 km/h (1 Bft)
15.05.2016 06:00 3,6 C 3,3 C 89 % 1015,1 hPa 0,0 mm 4,5 km/h (1 Bft) SW 225 0 min 2,0 C 9,5 km/h (2 Bft)
15.05.2016 06:05 3,6 C 3,3 C 89 % 1015,1 hPa 0,0 mm 5,1 km/h (1 Bft) SO 135 0 min 2,0 C 7,2 km/h (2 Bft)
15.05.2016 06:10 3,6 C 3,3 C 89 % 1015,1 hPa 0,0 mm 4,8 km/h (1 Bft) SW 225 0 min 2,0 C 0,0 km/h (0 Bft)
15.05.2016 06:15 3,5 C 3,2 C 89 % 1015,2 hPa 0,0 mm 3,9 km/h (1 Bft) SW 225 0 min 1,9 C 4,8 km/h (1 Bft)
15.05.2016 06:20 3,5 C 3,2 C 89 % 1015,2 hPa 0,0 mm 3,3 km/h (1 Bft) S 180 0 min 1,9 C 3,9 km/h (1 Bft)
15.05.2016 06:25 3,6 C 3,3 C 89 % 1015,2 hPa 0,0 mm 4,8 km/h (1 Bft) S-SO 157 0 min 2,0 C 3,6 km/h (1 Bft)
15.05.2016 06:30 3,6 C 3,2 C 89 % 1015,2 hPa 0,0 mm 6,3 km/h (2 Bft) SW 225 0 min 2,0 C 10,1 km/h (2 Bft)
15.05.2016 06:35 3,6 C 3,3 C 89 % 1015,6 hPa 0,0 mm 6,0 km/h (2 Bft) W-SW 247 0 min 2,0 C 6,9 km/h (2 Bft)
15.05.2016 06:40 3,7 C 3,3 C 88 % 1015,6 hPa 0,0 mm 6,6 km/h (2 Bft) S-SW 202 0 min 1,9 C 8,9 km/h (2 Bft)
15.05.2016 06:45 3,8 C 3,4 C 88 % 1015,6 hPa 0,0 mm 6,9 km/h (2 Bft) W-SW 247 0 min 2,0 C 4,8 km/h (1 Bft)
15.05.2016 06:50 3,8 C 3,5 C 88 % 1015,6 hPa 0,0 mm 6,0 km/h (2 Bft) SW 225 0 min 2,0 C 6,0 km/h (2 Bft)
15.05.2016 06:55 3,9 C 3,8 C 88 % 1015,6 hPa 0,0 mm 4,5 km/h (1 Bft) S-SO 157 0 min 2,1 C 6,6 km/h (2 Bft)
15.05.2016 07:00 4,0 C 3,9 C 87 % 1015,6 hPa 0,0 mm 3,6 km/h (1 Bft) S-SO 157 0 min 2,0 C 0,0 km/h (0 Bft)
15.05.2016 07:05 4,4 C 4,4 C 87 % 1015,6 hPa 0,0 mm 3,3 km/h (1 Bft) SW 225 0 min 2,4 C 8,9 km/h (2 Bft)
15.05.2016 07:10 4,8 C 5,1 C 87 % 1015,6 hPa 0,0 mm 2,7 km/h (1 Bft) NW 315 0 min 2,8 C 5,1 km/h (1 Bft)
15.05.2016 07:15 5,1 C 6,1 C 87 % 1015,6 hPa 0,0 mm 1,5 km/h (1 Bft) W-NW 292 0 min 3,1 C 0,0 km/h (0 Bft)
15.05.2016 07:20 5,0 C 6,1 C 86 % 1015,6 hPa 0,0 mm 0,6 km/h (0 Bft) SW 225 0 min 2,9 C 0,0 km/h (0 Bft)
15.05.2016 07:25 5,0 C 6,1 C 86 % 1015,6 hPa 0,0 mm 1,2 km/h (1 Bft) W-SW 247 0 min 2,9 C 8,9 km/h (2 Bft)
15.05.2016 07:27 5,1 C 6,0 C 86 % 1015,6 hPa 0,0 mm 1,8 km/h (1 Bft) SW 225 0 min 3,0 C 3,0 km/h (1 Bft)
15.05.2016 07:31 5,1 C 6,0 C 86 % 1015,6 hPa 0,0 mm 1,8 km/h (1 Bft) SW 225 0 min 3,0 C 3,0 km/h (1 Bft)
15.05.2016 07:35 5,3 C 6,1 C 86 % 1015,8 hPa 0,0 mm 1,2 km/h (1 Bft) W-SW 247 0 min 3,2 C 5,4 km/h (1 Bft)
15.05.2016 07:40 5,4 C 6,3 C 86 % 1015,8 hPa 0,0 mm 1,2 km/h (1 Bft) N-NW 337 0 min 3,3 C 3,0 km/h (1 Bft)
15.05.2016 07:45 5,5 C 6,7 C 85 % 1015,8 hPa 0,0 mm 2,4 km/h (1 Bft) NW 315 0 min 3,2 C 4,8 km/h (1 Bft)
15.05.2016 07:50 5,6 C 6,9 C 85 % 1015,8 hPa 0,0 mm 2,4 km/h (1 Bft) W-SW 247 0 min 3,3 C 3,9 km/h (1 Bft)
15.05.2016 07:55 5,7 C 7,1 C 85 % 1015,9 hPa 0,0 mm 1,8 km/h (1 Bft) NW 315 0 min 3,4 C 3,6 km/h (1 Bft)
15.05.2016 08:00 6,3 C 7,8 C 83 % 1015,9 hPa 0,0 mm 2,4 km/h (1 Bft) W 270 0 min 3,6 C 0,0 km/h (0 Bft)
15.05.2016 08:05 6,4 C 8,7 C 82 % 1015,9 hPa 0,0 mm 5,4 km/h (1 Bft) W-NW 292 5 min 3,6 C 14,3 km/h (3 Bft)
15.05.2016 08:10 6,4 C 8,6 C 82 % 1015,9 hPa 0,0 mm 5,7 km/h (1 Bft) NW 315 5 min 3,6 C 0,0 km/h (0 Bft)
15.05.2016 08:15 6,8 C 9,3 C 81 % 1016,1 hPa 0,0 mm 6,6 km/h (2 Bft) W-SW 247 5 min 3,8 C 14,9 km/h (3 Bft)
15.05.2016 08:20 6,4 C 9,3 C 81 % 1016,1 hPa 0,0 mm 6,3 km/h (2 Bft) W 270 5 min 3,4 C 7,7 km/h (2 Bft)
15.05.2016 08:25 6,2 C 8,4 C 80 % 1016,1 hPa 0,0 mm 6,0 km/h (2 Bft) NW 315 5 min 3,0 C 4,8 km/h (1 Bft)
15.05.2016 08:30 6,5 C 8,3 C 80 % 1016,1 hPa 0,0 mm 6,6 km/h (2 Bft) W-NW 292 0 min 3,3 C 10,1 km/h (2 Bft)
15.05.2016 08:35 6,7 C 8,3 C 79 % 1016,2 hPa 0,0 mm 7,5 km/h (2 Bft) W 270 0 min 3,3 C 15,5 km/h (3 Bft)
15.05.2016 08:40 7,6 C 9,4 C 78 % 1016,2 hPa 0,0 mm 6,0 km/h (2 Bft) S 180 0 min 4,0 C 0,0 km/h (0 Bft)
15.05.2016 08:45 7,0 C 10,2 C 78 % 1016,2 hPa 0,0 mm 6,0 km/h (2 Bft) W-NW 292 5 min 3,4 C 19,4 km/h (3 Bft)
15.05.2016 08:50 6,9 C 9,6 C 77 % 1016,2 hPa 0,0 mm 7,5 km/h (2 Bft) NW 315 5 min 3,2 C 16,7 km/h (3 Bft)
15.05.2016 08:55 6,0 C 7,7 C 77 % 1016,1 hPa 0,0 mm 9,2 km/h (2 Bft) NW 315 0 min 2,3 C 21,8 km/h (4 Bft)
15.05.2016 09:00 5,9 C 6,7 C 77 % 1016,1 hPa 0,0 mm 9,5 km/h (2 Bft) N 360 0 min 2,2 C 8,3 km/h (2 Bft)
15.05.2016 09:05 5,8 C 5,8 C 77 % 1016,1 hPa 0,0 mm 10,1 km/h (2 Bft) W 270 0 min 2,1 C 24,4 km/h (4 Bft)
15.05.2016 09:10 5,7 C 5,6 C 78 % 1016,1 hPa 0,0 mm 11,3 km/h (2 Bft) W-NW 292 0 min 2,2 C 19,4 km/h (3 Bft)
15.05.2016 09:15 5,9 C 5,7 C 78 % 1016,6 hPa 0,0 mm 11,6 km/h (2 Bft) N 360 0 min 2,4 C 14,9 km/h (3 Bft)
15.05.2016 09:20 6,3 C 6,3 C 78 % 1016,6 hPa 0,0 mm 10,7 km/h (2 Bft) W 270 0 min 2,8 C 7,7 km/h (2 Bft)
15.05.2016 09:25 6,6 C 6,7 C 78 % 1016,6 hPa 0,0 mm 10,1 km/h (2 Bft) NW 315 0 min 3,0 C 13,4 km/h (3 Bft)
15.05.2016 09:30 6,3 C 6,9 C 78 % 1016,6 hPa 0,0 mm 10,7 km/h (2 Bft) W-NW 292 0 min 2,8 C 13,1 km/h (3 Bft)
15.05.2016 09:35 6,0 C 6,3 C 77 % 1016,6 hPa 0,0 mm 10,7 km/h (2 Bft) W 270 0 min 2,3 C 13,1 km/h (3 Bft)
15.05.2016 09:40 5,8 C 6,1 C 77 % 1016,6 hPa 0,0 mm 10,1 km/h (2 Bft) W 270 0 min 2,1 C 16,1 km/h (3 Bft)
15.05.2016 09:45 5,7 C 6,2 C 77 % 1016,6 hPa 0,0 mm 7,2 km/h (2 Bft) W 270 0 min 2,0 C 8,9 km/h (2 Bft)
15.05.2016 09:50 5,6 C 6,3 C 77 % 1016,6 hPa 0,0 mm 6,0 km/h (2 Bft) W-NW 292 0 min 1,9 C 9,5 km/h (2 Bft)
15.05.2016 09:55 5,3 C 6,0 C 77 % 1016,6 hPa 0,0 mm 6,0 km/h (2 Bft) W-SW 247 0 min 1,6 C 6,3 km/h (2 Bft)
15.05.2016 10:00 5,2 C 5,3 C 77 % 1016,6 hPa 0,0 mm 6,9 km/h (2 Bft) W-SW 247 0 min 1,5 C 10,4 km/h (2 Bft)
15.05.2016 10:05 5,2 C 5,0 C 78 % 1016,6 hPa 0,0 mm 8,6 km/h (2 Bft) W-NW 292 0 min 1,7 C 31,6 km/h (5 Bft)
15.05.2016 10:10 5,3 C 5,0 C 78 % 1016,6 hPa 0,0 mm 9,5 km/h (2 Bft) NW 315 0 min 1,8 C 7,2 km/h (2 Bft)
15.05.2016 10:15 5,4 C 5,3 C 78 % 1016,5 hPa 0,0 mm 8,9 km/h (2 Bft) W-SW 247 0 min 1,9 C 10,1 km/h (2 Bft)
15.05.2016 10:20 5,4 C 5,4 C 78 % 1016,5 hPa 0,0 mm 7,2 km/h (2 Bft) W-SW 247 0 min 1,9 C 4,5 km/h (1 Bft)
15.05.2016 10:25 5,9 C 6,3 C 78 % 1016,5 hPa 0,0 mm 6,9 km/h (2 Bft) W-SW 247 0 min 2,4 C 9,2 km/h (2 Bft)
15.05.2016 10:30 6,0 C 6,8 C 78 % 1016,5 hPa 0,0 mm 6,9 km/h (2 Bft) W 270 0 min 2,5 C 9,8 km/h (2 Bft)
15.05.2016 10:32 6,0 C 6,8 C 78 % 1016,5 hPa 0,0 mm 6,9 km/h (2 Bft) W 270 0 min 2,5 C 9,8 km/h (2 Bft)
15.05.2016 10:35 6,6 C 7,8 C 78 % 1016,7 hPa 0,0 mm 6,6 km/h (2 Bft) NW 315 0 min 3,0 C 8,9 km/h (2 Bft)
15.05.2016 10:40 6,0 C 7,8 C 78 % 1016,7 hPa 0,0 mm 5,7 km/h (1 Bft) N-NW 337 0 min 2,5 C 8,9 km/h (2 Bft)
15.05.2016 10:45 5,7 C 7,0 C 78 % 1016,7 hPa 0,0 mm 5,7 km/h (1 Bft) SW 225 0 min 2,2 C 8,0 km/h (2 Bft)
15.05.2016 10:50 5,5 C 6,4 C 78 % 1016,7 hPa 0,0 mm 6,3 km/h (2 Bft) W-SW 247 0 min 2,0 C 5,4 km/h (1 Bft)
15.05.2016 10:55 5,4 C 6,3 C 78 % 1016,8 hPa 0,0 mm 6,0 km/h (2 Bft) SW 225 0 min 1,9 C 9,2 km/h (2 Bft)
15.05.2016 11:00 5,4 C 6,3 C 78 % 1016,8 hPa 0,0 mm 4,8 km/h (1 Bft) W 270 0 min 1,9 C 3,3 km/h (1 Bft)
15.05.2016 11:05 5,3 C 6,0 C 79 % 1016,8 hPa 0,0 mm 4,2 km/h (1 Bft) W 270 0 min 2,0 C 4,2 km/h (1 Bft)
15.05.2016 11:10 5,2 C 5,8 C 79 % 1016,8 hPa 0,0 mm 5,1 km/h (1 Bft) W-NW 292 0 min 1,9 C 11,9 km/h (2 Bft)
15.05.2016 11:15 5,3 C 5,6 C 79 % 1016,9 hPa 0,0 mm 6,3 km/h (2 Bft) NW 315 0 min 2,0 C 10,1 km/h (2 Bft)
15.05.2016 11:20 5,5 C 5,9 C 79 % 1016,9 hPa 0,0 mm 6,0 km/h (2 Bft) W-SW 247 0 min 2,2 C 3,3 km/h (1 Bft)
15.05.2016 11:25 5,5 C 6,0 C 79 % 1016,9 hPa 0,0 mm 6,0 km/h (2 Bft) NW 315 0 min 2,2 C 11,0 km/h (2 Bft)
15.05.2016 11:30 5,3 C 5,9 C 79 % 1016,9 hPa 0,0 mm 6,0 km/h (2 Bft) W 270 0 min 2,0 C 6,9 km/h (2 Bft)
15.05.2016 11:35 5,3 C 5,6 C 79 % 1017,1 hPa 0,0 mm 6,0 km/h (2 Bft) S-SW 202 0 min 2,0 C 11,9 km/h (2 Bft)
15.05.2016 11:40 5,4 C 5,7 C 79 % 1017,1 hPa 0,0 mm 5,1 km/h (1 Bft) W-SW 247 0 min 2,1 C 5,1 km/h (1 Bft)
15.05.2016 11:45 5,7 C 6,0 C 79 % 1017,1 hPa 0,0 mm 5,4 km/h (1 Bft) S 180 0 min 2,3 C 4,5 km/h (1 Bft)
15.05.2016 11:50 7,0 C 7,0 C 79 % 1017,1 hPa 0,0 mm 4,5 km/h (1 Bft) NO 45 0 min 3,6 C 0,0 km/h (0 Bft)
15.05.2016 11:55 7,9 C 9,9 C 79 % 1017,1 hPa 0,0 mm 5,1 km/h (1 Bft) W-SW 247 0 min 4,5 C 6,0 km/h (2 Bft)
15.05.2016 12:00 7,8 C 10,0 C 78 % 1017,1 hPa 0,0 mm 5,1 km/h (1 Bft) S 180 5 min 4,2 C 3,3 km/h (1 Bft)
15.05.2016 12:05 7,5 C 10,2 C 77 % 1017,1 hPa 0,0 mm 6,3 km/h (2 Bft) W-SW 247 5 min 3,7 C 16,7 km/h (3 Bft)
15.05.2016 12:10 8,1 C 10,5 C 77 % 1017,1 hPa 0,0 mm 6,9 km/h (2 Bft) W 270 5 min 4,3 C 14,3 km/h (3 Bft)
15.05.2016 12:15 8,1 C 10,7 C 76 % 1017,4 hPa 0,0 mm 8,3 km/h (2 Bft) S 180 5 min 4,1 C 18,8 km/h (3 Bft)
15.05.2016 12:20 7,6 C 10,3 C 75 % 1017,4 hPa 0,0 mm 9,5 km/h (2 Bft) W-SW 247 5 min 3,5 C 15,2 km/h (3 Bft)
15.05.2016 12:25 6,4 C 8,0 C 74 % 1017,4 hPa 0,0 mm 8,6 km/h (2 Bft) S-SW 202 0 min 2,1 C 11,3 km/h (2 Bft)
15.05.2016 12:30 6,2 C 6,9 C 75 % 1017,4 hPa 0,0 mm 7,5 km/h (2 Bft) S 180 0 min 2,1 C 0,0 km/h (0 Bft)
15.05.2016 12:35 6,3 C 6,4 C 75 % 1017,6 hPa 0,0 mm 4,8 km/h (1 Bft) SW 225 0 min 2,2 C 3,6 km/h (1 Bft)
15.05.2016 12:40 7,1 C 7,0 C 76 % 1017,6 hPa 0,0 mm 3,9 km/h (1 Bft) SO 135 0 min 3,2 C 6,0 km/h (2 Bft)
15.05.2016 12:45 7,3 C 8,3 C 75 % 1017,6 hPa 0,0 mm 5,4 km/h (1 Bft) W 270 0 min 3,2 C 13,1 km/h (3 Bft)
15.05.2016 12:50 7,5 C 8,7 C 75 % 1017,6 hPa 0,0 mm 7,2 km/h (2 Bft) NW 315 0 min 3,4 C 8,9 km/h (2 Bft)
15.05.2016 12:55 6,4 C 7,4 C 74 % 1017,9 hPa 0,0 mm 10,1 km/h (2 Bft) NW 315 0 min 2,1 C 14,3 km/h (3 Bft)
15.05.2016 13:00 6,1 C 5,9 C 74 % 1017,9 hPa 0,0 mm 13,7 km/h (3 Bft) W-NW 292 0 min 1,8 C 13,7 km/h (3 Bft)
15.05.2016 13:05 6,3 C 6,1 C 75 % 1017,9 hPa 0,0 mm 14,3 km/h (3 Bft) W-NW 292 0 min 2,2 C 36,1 km/h (5 Bft)
15.05.2016 13:10 7,0 C 6,8 C 76 % 1017,9 hPa 0,0 mm 11,3 km/h (2 Bft) W-SW 247 0 min 3,1 C 13,7 km/h (3 Bft)
15.05.2016 13:15 8,5 C 9,5 C 74 % 1017,9 hPa 0,0 mm 7,5 km/h (2 Bft) SW 225 0 min 4,1 C 15,5 km/h (3 Bft)
15.05.2016 13:20 8,7 C 10,9 C 74 % 1017,9 hPa 0,0 mm 5,7 km/h (1 Bft) W 270 5 min 4,3 C 6,3 km/h (2 Bft)
15.05.2016 13:25 7,6 C 11,2 C 73 % 1017,9 hPa 0,0 mm 7,5 km/h (2 Bft) N-NW 337 5 min 3,1 C 13,7 km/h (3 Bft)
15.05.2016 13:30 7,9 C 10,1 C 73 % 1017,9 hPa 0,0 mm 9,2 km/h (2 Bft) W-SW 247 5 min 3,4 C 10,7 km/h (2 Bft)
15.05.2016 13:32 10,3 C 11,1 C 73 % 1017,9 hPa 0,0 mm 9,8 km/h (2 Bft) W 270 0 min 5,7 C 17,3 km/h (3 Bft)
15.05.2016 13:33 10,3 C 11,1 C 73 % 1017,9 hPa 0,0 mm 9,8 km/h (2 Bft) W 270 0 min 5,7 C 17,3 km/h (3 Bft)
15.05.2016 13:35 10,3 C 11,1 C 73 % 1017,9 hPa 0,0 mm 9,8 km/h (2 Bft) W 270 0 min 5,7 C 17,3 km/h (3 Bft)
15.05.2016 13:40 9,8 C 12,2 C 72 % 1017,9 hPa 0,0 mm 12,5 km/h (3 Bft) W 270 5 min 5,0 C 12,2 km/h (2 Bft)
15.05.2016 13:45 9,0 C 11,3 C 71 % 1017,9 hPa 0,0 mm 12,5 km/h (3 Bft) N-NW 337 5 min 4,0 C 12,5 km/h (3 Bft)
15.05.2016 13:50 8,6 C 11,1 C 70 % 1017,9 hPa 0,0 mm 10,1 km/h (2 Bft) SW 225 5 min 3,4 C 9,8 km/h (2 Bft)
15.05.2016 13:55 8,8 C 10,8 C 70 % 1017,9 hPa 0,0 mm 9,5 km/h (2 Bft) W 270 0 min 3,6 C 15,2 km/h (3 Bft)
15.05.2016 14:00 8,1 C 9,9 C 70 % 1017,9 hPa 0,0 mm 11,6 km/h (2 Bft) W-NW 292 0 min 3,0 C 25,0 km/h (4 Bft)
15.05.2016 14:05 8,2 C 9,7 C 69 % 1017,9 hPa 0,0 mm 13,4 km/h (3 Bft) W 270 0 min 2,9 C 28,3 km/h (4 Bft)
15.05.2016 14:10 7,6 C 8,7 C 68 % 1017,9 hPa 0,0 mm 14,0 km/h (3 Bft) W 270 0 min 2,1 C 14,6 km/h (3 Bft)
15.05.2016 14:15 7,1 C 7,9 C 68 % 1017,9 hPa 0,0 mm 19,1 km/h (3 Bft) NW 315 0 min 1,6 C 36,7 km/h (5 Bft)
15.05.2016 14:20 6,8 C 6,8 C 68 % 1017,9 hPa 0,0 mm 20,6 km/h (4 Bft) W-NW 292 0 min 1,3 C 20,9 km/h (4 Bft)
15.05.2016 14:25 7,1 C 6,9 C 69 % 1017,9 hPa 0,0 mm 17,6 km/h (3 Bft) W 270 0 min 1,8 C 18,5 km/h (3 Bft)
15.05.2016 14:30 7,7 C 7,6 C 70 % 1017,9 hPa 0,0 mm 13,1 km/h (3 Bft) W 270 0 min 2,6 C 14,9 km/h (3 Bft)
15.05.2016 14:35 8,0 C 8,8 C 70 % 1017,9 hPa 0,0 mm 11,0 km/h (2 Bft) S 180 0 min 2,9 C 25,3 km/h (4 Bft)
15.05.2016 14:40 8,2 C 9,0 C 69 % 1017,9 hPa 0,0 mm 12,2 km/h (2 Bft) W-NW 292 0 min 2,9 C 19,1 km/h (3 Bft)
15.05.2016 14:45 8,4 C 9,0 C 68 % 1017,9 hPa 0,0 mm 14,6 km/h (3 Bft) W-NW 292 0 min 2,8 C 18,5 km/h (3 Bft)
15.05.2016 14:50 8,3 C 9,2 C 67 % 1017,9 hPa 0,0 mm 14,0 km/h (3 Bft) W-SW 247 0 min 2,5 C 19,4 km/h (3 Bft)
15.05.2016 14:55 8,3 C 9,6 C 66 % 1017,9 hPa 0,0 mm 12,2 km/h (2 Bft) NW 315 0 min 2,3 C 14,9 km/h (3 Bft)
15.05.2016 15:00 8,2 C 9,9 C 66 % 1017,9 hPa 0,0 mm 10,4 km/h (2 Bft) W-NW 292 0 min 2,2 C 14,0 km/h (3 Bft)
15.05.2016 15:05 7,7 C 8,3 C 65 % 1017,9 hPa 0,0 mm 14,0 km/h (3 Bft) W-NW 292 0 min 1,5 C 21,2 km/h (4 Bft)
15.05.2016 15:10 7,3 C 8,1 C 65 % 1017,9 hPa 0,0 mm 16,7 km/h (3 Bft) W 270 0 min 1,2 C 26,2 km/h (4 Bft)
15.05.2016 15:15 7,4 C 7,5 C 65 % 1017,6 hPa 0,0 mm 14,6 km/h (3 Bft) NW 315 0 min 1,3 C 24,1 km/h (4 Bft)
15.05.2016 15:20 7,2 C 7,0 C 65 % 1017,6 hPa 0,0 mm 14,0 km/h (3 Bft) W 270 0 min 1,1 C 24,1 km/h (4 Bft)
15.05.2016 15:25 7,4 C 7,2 C 66 % 1017,6 hPa 0,0 mm 14,6 km/h (3 Bft) W 270 0 min 1,5 C 22,9 km/h (4 Bft)
15.05.2016 15:30 8,8 C 8,5 C 66 % 1017,6 hPa 0,0 mm 12,8 km/h (3 Bft) W-SW 247 0 min 2,8 C 12,8 km/h (3 Bft)
15.05.2016 15:35 9,4 C 10,7 C 66 % 1017,8 hPa 0,0 mm 10,7 km/h (2 Bft) W-SW 247 0 min 3,4 C 15,8 km/h (3 Bft)
15.05.2016 15:40 9,2 C 11,1 C 64 % 1017,8 hPa 0,0 mm 10,1 km/h (2 Bft) W-NW 292 0 min 2,8 C 11,0 km/h (2 Bft)
15.05.2016 15:45 9,1 C 11,1 C 64 % 1017,8 hPa 0,0 mm 9,8 km/h (2 Bft) W 270 0 min 2,7 C 13,1 km/h (3 Bft)
15.05.2016 15:50 8,4 C 10,3 C 63 % 1017,8 hPa 0,0 mm 12,5 km/h (3 Bft) W-NW 292 0 min 1,8 C 20,0 km/h (4 Bft)
15.05.2016 15:55 8,0 C 8,7 C 63 % 1017,2 hPa 0,0 mm 13,7 km/h (3 Bft) W-NW 292 0 min 1,4 C 16,4 km/h (3 Bft)
15.05.2016 16:00 8,9 C 8,9 C 64 % 1017,2 hPa 0,0 mm 12,5 km/h (3 Bft) S 180 0 min 2,5 C 8,9 km/h (2 Bft)
15.05.2016 16:05 9,4 C 10,6 C 63 % 1017,2 hPa 0,0 mm 11,6 km/h (2 Bft) W 270 0 min 2,7 C 4,8 km/h (1 Bft)
15.05.2016 16:10 9,2 C 11,0 C 63 % 1017,2 hPa 0,0 mm 10,4 km/h (2 Bft) W 270 0 min 2,5 C 8,9 km/h (2 Bft)
15.05.2016 16:15 8,6 C 10,4 C 62 % 1017,3 hPa 0,0 mm 10,4 km/h (2 Bft) NW 315 0 min 1,7 C 13,1 km/h (3 Bft)
15.05.2016 16:20 8,7 C 9,5 C 62 % 1017,3 hPa 0,0 mm 11,6 km/h (2 Bft) W 270 0 min 1,8 C 10,4 km/h (2 Bft)
15.05.2016 16:25 8,1 C 8,9 C 61 % 1017,3 hPa 0,0 mm 10,7 km/h (2 Bft) N-NW 337 0 min 1,0 C 13,7 km/h (3 Bft)
15.05.2016 16:30 7,9 C 8,1 C 60 % 1017,3 hPa 0,0 mm 12,8 km/h (3 Bft) W 270 0 min 0,6 C 33,4 km/h (5 Bft)
15.05.2016 16:32 7,5 C 7,7 C 60 % 1017,6 hPa 0,0 mm 15,2 km/h (3 Bft) W-SW 247 0 min 0,2 C 25,3 km/h (4 Bft)
15.05.2016 16:34 7,5 C 7,3 C 60 % 1017,6 hPa 0,0 mm 15,2 km/h (3 Bft) W-SW 247 0 min 0,2 C 25,3 km/h (4 Bft)
15.05.2016 16:35 7,5 C 7,3 C 60 % 1017,6 hPa 0,0 mm 15,2 km/h (3 Bft) W-SW 247 0 min 0,2 C 25,3 km/h (4 Bft)
15.05.2016 16:40 7,5 C 7,3 C 61 % 1017,6 hPa 0,0 mm 12,8 km/h (3 Bft) S-SW 202 0 min 0,5 C 7,2 km/h (2 Bft)
15.05.2016 16:45 7,5 C 7,4 C 62 % 1017,6 hPa 0,0 mm 9,5 km/h (2 Bft) W-SW 247 0 min 0,7 C 13,1 km/h (3 Bft)
15.05.2016 16:50 7,7 C 7,7 C 62 % 1017,6 hPa 0,0 mm 8,0 km/h (2 Bft) S-SW 202 0 min 0,9 C 10,7 km/h (2 Bft)
15.05.2016 16:55 7,7 C 8,3 C 63 % 1017,6 hPa 0,0 mm 6,0 km/h (2 Bft) SW 225 0 min 1,1 C 8,0 km/h (2 Bft)
15.05.2016 17:00 7,5 C 8,4 C 64 % 1017,6 hPa 0,0 mm 5,7 km/h (1 Bft) S 180 0 min 1,1 C 12,5 km/h (3 Bft)
15.05.2016 17:05 7,6 C 8,3 C 65 % 1017,6 hPa 0,0 mm 7,5 km/h (2 Bft) SW 225 0 min 1,5 C 5,1 km/h (1 Bft)
15.05.2016 17:10 7,9 C 8,4 C 66 % 1017,6 hPa 0,0 mm 8,3 km/h (2 Bft) S 180 0 min 1,9 C 8,9 km/h (2 Bft)
15.05.2016 17:15 8,3 C 9,3 C 66 % 1017,7 hPa 0,0 mm 6,6 km/h (2 Bft) S-SW 202 0 min 2,3 C 6,6 km/h (2 Bft)
15.05.2016 17:20 7,7 C 9,1 C 66 % 1017,7 hPa 0,0 mm 6,6 km/h (2 Bft) NW 315 0 min 1,8 C 8,3 km/h (2 Bft)
15.05.2016 17:25 7,1 C 7,3 C 65 % 1017,7 hPa 0,0 mm 10,4 km/h (2 Bft) W-NW 292 0 min 1,0 C 20,3 km/h (4 Bft)
15.05.2016 17:30 6,9 C 6,7 C 65 % 1017,7 hPa 0,0 mm 12,2 km/h (2 Bft) W-SW 247 0 min 0,8 C 16,4 km/h (3 Bft)
15.05.2016 17:35 6,7 C 6,2 C 66 % 1017,8 hPa 0,0 mm 12,8 km/h (3 Bft) W 270 0 min 0,8 C 12,8 km/h (3 Bft)
15.05.2016 17:40 6,5 C 6,0 C 66 % 1017,8 hPa 0,0 mm 10,7 km/h (2 Bft) NW 315 0 min 0,6 C 13,4 km/h (3 Bft)
15.05.2016 17:45 6,3 C 5,8 C 67 % 1017,8 hPa 0,0 mm 7,5 km/h (2 Bft) W 270 0 min 0,6 C 3,9 km/h (1 Bft)
15.05.2016 17:50 6,3 C 5,9 C 67 % 1017,8 hPa 0,0 mm 6,3 km/h (2 Bft) W-SW 247 0 min 0,6 C 8,6 km/h (2 Bft)
15.05.2016 17:55 6,2 C 5,9 C 68 % 1018,0 hPa 0,0 mm 4,8 km/h (1 Bft) SW 225 0 min 0,7 C 11,3 km/h (2 Bft)
15.05.2016 18:00 6,1 C 5,8 C 69 % 1018,0 hPa 0,0 mm 5,1 km/h (1 Bft) W 270 0 min 0,8 C 7,7 km/h (2 Bft)
15.05.2016 18:05 6,1 C 5,8 C 69 % 1018,0 hPa 0,0 mm 3,6 km/h (1 Bft) W-SW 247 0 min 0,8 C 3,0 km/h (1 Bft)
15.05.2016 18:10 6,0 C 5,7 C 70 % 1018,0 hPa 0,0 mm 3,6 km/h (1 Bft) S 180 0 min 1,0 C 4,8 km/h (1 Bft)
15.05.2016 18:15 5,7 C 5,5 C 70 % 1017,8 hPa 0,0 mm 5,4 km/h (1 Bft) NW 315 0 min 0,7 C 15,2 km/h (3 Bft)
15.05.2016 18:20 5,5 C 5,1 C 70 % 1017,8 hPa 0,0 mm 8,6 km/h (2 Bft) SW 225 0 min 0,5 C 11,3 km/h (2 Bft)
15.05.2016 18:25 5,6 C 5,1 C 71 % 1017,8 hPa 0,0 mm 10,4 km/h (2 Bft) W-SW 247 0 min 0,8 C 17,0 km/h (3 Bft)
15.05.2016 18:30 5,7 C 5,2 C 71 % 1017,8 hPa 0,0 mm 10,4 km/h (2 Bft) SW 225 0 min 0,9 C 15,2 km/h (3 Bft)
15.05.2016 18:35 5,4 C 4,8 C 71 % 1017,8 hPa 0,0 mm 13,1 km/h (3 Bft) W-SW 247 0 min 0,6 C 17,3 km/h (3 Bft)
15.05.2016 18:40 5,2 C 4,5 C 72 % 1017,8 hPa 0,0 mm 14,0 km/h (3 Bft) SW 225 0 min 0,6 C 19,4 km/h (3 Bft)
15.05.2016 18:45 5,0 C 4,3 C 72 % 1017,8 hPa 0,0 mm 11,6 km/h (2 Bft) W-SW 247 0 min 0,4 C 18,5 km/h (3 Bft)
15.05.2016 18:50 5,1 C 4,4 C 73 % 1017,8 hPa 0,0 mm 11,6 km/h (2 Bft) W-SW 247 0 min 0,7 C 11,0 km/h (2 Bft)
15.05.2016 18:55 5,5 C 4,9 C 73 % 1017,8 hPa 0,0 mm 10,7 km/h (2 Bft) W-SW 247 0 min 1,1 C 8,6 km/h (2 Bft)
15.05.2016 19:00 5,6 C 5,2 C 73 % 1017,8 hPa 0,0 mm 9,2 km/h (2 Bft) SW 225 0 min 1,2 C 13,7 km/h (3 Bft)
15.05.2016 19:05 5,4 C 5,2 C 73 % 1017,8 hPa 0,0 mm 8,9 km/h (2 Bft) S 180 0 min 1,0 C 9,2 km/h (2 Bft)
15.05.2016 19:10 5,3 C 5,1 C 73 % 1017,8 hPa 0,0 mm 8,9 km/h (2 Bft) SW 225 0 min 0,9 C 8,9 km/h (2 Bft)
15.05.2016 19:15 5,3 C 5,0 C 73 % 1017,8 hPa 0,0 mm 9,2 km/h (2 Bft) SW 225 0 min 0,9 C 7,7 km/h (2 Bft)
15.05.2016 19:20 5,3 C 5,0 C 73 % 1017,8 hPa 0,0 mm 9,5 km/h (2 Bft) SW 225 0 min 0,9 C 11,9 km/h (2 Bft)
15.05.2016 19:25 5,2 C 4,9 C 74 % 1017,8 hPa 0,0 mm 8,9 km/h (2 Bft) SW 225 0 min 1,0 C 7,2 km/h (2 Bft)
15.05.2016 19:30 5,2 C 4,9 C 74 % 1017,8 hPa 0,0 mm 7,7 km/h (2 Bft) S-SW 202 0 min 1,0 C 4,5 km/h (1 Bft)
15.05.2016 19:31 5,2 C 5,0 C 74 % 1018,0 hPa 0,0 mm 6,0 km/h (2 Bft) W 270 0 min 1,0 C 7,2 km/h (2 Bft)
15.05.2016 19:35 5,2 C 5,0 C 74 % 1018,0 hPa 0,0 mm 6,0 km/h (2 Bft) W 270 0 min 1,0 C 7,2 km/h (2 Bft)
15.05.2016 19:40 5,3 C 5,1 C 74 % 1018,0 hPa 0,0 mm 4,5 km/h (1 Bft) SO 135 0 min 1,0 C 3,6 km/h (1 Bft)
15.05.2016 19:45 5,3 C 5,1 C 74 % 1018,0 hPa 0,0 mm 3,0 km/h (1 Bft) NW 315 0 min 1,0 C 4,2 km/h (1 Bft)
15.05.2016 19:50 5,2 C 5,1 C 73 % 1018,0 hPa 0,0 mm 2,7 km/h (1 Bft) W-SW 247 0 min 0,8 C 3,0 km/h (1 Bft)
15.05.2016 19:55 5,1 C 5,0 C 73 % 1018,1 hPa 0,0 mm 3,0 km/h (1 Bft) S-SW 202 0 min 0,7 C 5,1 km/h (1 Bft)
15.05.2016 20:00 5,1 C 5,0 C 73 % 1018,1 hPa 0,0 mm 4,5 km/h (1 Bft) SW 225 0 min 0,7 C 13,1 km/h (3 Bft)
15.05.2016 20:05 5,1 C 5,0 C 73 % 1018,1 hPa 0,0 mm 6,0 km/h (2 Bft) SW 225 0 min 0,7 C 7,5 km/h (2 Bft)
15.05.2016 20:10 5,0 C 4,8 C 73 % 1018,1 hPa 0,0 mm 7,5 km/h (2 Bft) W-SW 247 0 min 0,6 C 10,7 km/h (2 Bft)
15.05.2016 20:15 4,9 C 4,7 C 73 % 1018,4 hPa 0,0 mm 7,2 km/h (2 Bft) S 180 0 min 0,5 C 7,2 km/h (2 Bft)
15.05.2016 20:20 4,9 C 4,8 C 73 % 1018,4 hPa 0,0 mm 5,1 km/h (1 Bft) W 270 0 min 0,5 C 8,9 km/h (2 Bft)
15.05.2016 20:25 4,9 C 4,8 C 73 % 1018,4 hPa 0,0 mm 3,9 km/h (1 Bft) S-SW 202 0 min 0,5 C 3,0 km/h (1 Bft)
15.05.2016 20:30 4,9 C 4,8 C 73 % 1018,4 hPa 0,0 mm 3,9 km/h (1 Bft) SW 225 0 min 0,5 C 5,7 km/h (1 Bft)
15.05.2016 20:35 4,9 C 4,8 C 72 % 1018,6 hPa 0,0 mm 4,2 km/h (1 Bft) W-SW 247 0 min 0,3 C 6,0 km/h (2 Bft)
15.05.2016 20:40 4,8 C 4,7 C 72 % 1018,6 hPa 0,0 mm 5,1 km/h (1 Bft) W-SW 247 0 min 0,2 C 6,0 km/h (2 Bft)
15.05.2016 20:45 4,7 C 4,5 C 72 % 1018,6 hPa 0,0 mm 5,7 km/h (1 Bft) W 270 0 min 0,1 C 8,0 km/h (2 Bft)
15.05.2016 20:50 4,7 C 4,4 C 72 % 1018,6 hPa 0,0 mm 6,9 km/h (2 Bft) S-SW 202 0 min 0,1 C 10,1 km/h (2 Bft)
15.05.2016 20:55 4,5 C 4,0 C 72 % 1018,4 hPa 0,0 mm 9,5 km/h (2 Bft) S 180 0 min -0,1 C 11,3 km/h (2 Bft)
15.05.2016 21:00 4,5 C 3,9 C 72 % 1018,4 hPa 0,0 mm 11,6 km/h (2 Bft) SW 225 0 min -0,1 C 15,2 km/h (3 Bft)
15.05.2016 21:05 4,5 C 3,9 C 73 % 1018,4 hPa 0,0 mm 11,6 km/h (2 Bft) S-SW 202 0 min 0,1 C 13,1 km/h (3 Bft)
15.05.2016 21:10 4,5 C 3,9 C 73 % 1018,4 hPa 0,0 mm 10,7 km/h (2 Bft) W 270 0 min 0,1 C 11,9 km/h (2 Bft)
15.05.2016 21:15 4,4 C 4,0 C 73 % 1018,8 hPa 0,0 mm 8,6 km/h (2 Bft) W 270 0 min -0,0 C 9,2 km/h (2 Bft)
15.05.2016 21:20 4,4 C 4,0 C 73 % 1018,8 hPa 0,0 mm 8,0 km/h (2 Bft) W-SW 247 0 min -0,0 C 8,3 km/h (2 Bft)
15.05.2016 21:25 4,4 C 4,1 C 73 % 1018,8 hPa 0,0 mm 7,2 km/h (2 Bft) S-SW 202 0 min -0,0 C 7,2 km/h (2 Bft)
15.05.2016 21:30 4,4 C 4,0 C 73 % 1018,8 hPa 0,0 mm 7,2 km/h (2 Bft) N-NO 22 0 min -0,0 C 19,7 km/h (3 Bft)
15.05.2016 21:35 4,4 C 4,1 C 73 % 1019,1 hPa 0,0 mm 6,6 km/h (2 Bft) W-SW 247 0 min -0,0 C 5,7 km/h (1 Bft)
15.05.2016 21:40 4,4 C 4,2 C 73 % 1019,1 hPa 0,0 mm 5,1 km/h (1 Bft) W 270 0 min -0,0 C 0,0 km/h (0 Bft)
15.05.2016 21:45 4,4 C 4,2 C 73 % 1019,1 hPa 0,0 mm 4,8 km/h (1 Bft) SW 225 0 min -0,0 C 8,3 km/h (2 Bft)
15.05.2016 21:50 4,4 C 4,2 C 73 % 1019,1 hPa 0,0 mm 5,7 km/h (1 Bft) W-SW 247 0 min -0,0 C 8,9 km/h (2 Bft)
15.05.2016 21:55 4,4 C 4,1 C 72 % 1019,1 hPa 0,0 mm 7,5 km/h (2 Bft) S 180 0 min -0,2 C 8,0 km/h (2 Bft)
15.05.2016 22:00 4,4 C 4,0 C 72 % 1019,1 hPa 0,0 mm 8,3 km/h (2 Bft) SW 225 0 min -0,2 C 12,2 km/h (2 Bft)
15.05.2016 22:05 4,3 C 3,8 C 72 % 1019,1 hPa 0,0 mm 10,4 km/h (2 Bft) W-SW 247 0 min -0,3 C 14,3 km/h (3 Bft)
15.05.2016 22:10 4,3 C 3,8 C 72 % 1019,1 hPa 0,0 mm 10,1 km/h (2 Bft) W-SW 247 0 min -0,3 C 9,2 km/h (2 Bft)
15.05.2016 22:15 4,3 C 3,8 C 72 % 1019,2 hPa 0,0 mm 8,6 km/h (2 Bft) SW 225 0 min -0,3 C 9,8 km/h (2 Bft)
15.05.2016 22:20 4,2 C 3,8 C 71 % 1019,2 hPa 0,0 mm 7,5 km/h (2 Bft) S-SW 202 0 min -0,6 C 10,1 km/h (2 Bft)
15.05.2016 22:25 4,2 C 3,9 C 71 % 1019,2 hPa 0,0 mm 6,9 km/h (2 Bft) S 180 0 min -0,6 C 8,6 km/h (2 Bft)
15.05.2016 22:30 4,2 C 3,8 C 70 % 1019,2 hPa 0,0 mm 7,5 km/h (2 Bft) W-NW 292 0 min -0,8 C 10,1 km/h (2 Bft)
15.05.2016 22:31 4,1 C 3,7 C 70 % 1019,3 hPa 0,0 mm 8,0 km/h (2 Bft) SW 225 0 min -0,9 C 8,0 km/h (2 Bft)
15.05.2016 22:36 4,1 C 3,7 C 70 % 1019,3 hPa 0,0 mm 8,0 km/h (2 Bft) SW 225 0 min -0,9 C 8,0 km/h (2 Bft)
15.05.2016 22:40 4,1 C 3,7 C 70 % 1019,3 hPa 0,0 mm 7,7 km/h (2 Bft) SW 225 0 min -0,9 C 10,7 km/h (2 Bft)
15.05.2016 22:45 4,1 C 3,7 C 69 % 1019,3 hPa 0,0 mm 7,7 km/h (2 Bft) S 180 0 min -1,1 C 8,3 km/h (2 Bft)
15.05.2016 22:50 4,1 C 3,7 C 69 % 1019,3 hPa 0,0 mm 7,7 km/h (2 Bft) SW 225 0 min -1,1 C 7,2 km/h (2 Bft)
15.05.2016 22:55 4,0 C 3,7 C 69 % 1019,5 hPa 0,0 mm 6,6 km/h (2 Bft) W-SW 247 0 min -1,2 C 9,2 km/h (2 Bft)
15.05.2016 23:00 4,0 C 3,9 C 69 % 1019,5 hPa 0,0 mm 5,1 km/h (1 Bft) NW 315 0 min -1,2 C 3,0 km/h (1 Bft)
15.05.2016 23:05 3,9 C 3,8 C 69 % 1019,5 hPa 0,0 mm 2,7 km/h (1 Bft) W-SW 247 0 min -1,3 C 0,0 km/h (0 Bft)
15.05.2016 23:10 3,7 C 3,6 C 70 % 1019,5 hPa 0,0 mm 0,9 km/h (0 Bft) W-NW 292 0 min -1,3 C 0,0 km/h (0 Bft)
15.05.2016 23:15 3,7 C 3,5 C 70 % 1019,4 hPa 0,0 mm 0,6 km/h (0 Bft) W-NW 292 0 min -1,3 C 0,0 km/h (0 Bft)
15.05.2016 23:20 3,6 C 3,4 C 71 % 1019,4 hPa 0,0 mm 1,2 km/h (1 Bft) S 180 0 min -1,2 C 4,2 km/h (1 Bft)
15.05.2016 23:25 3,6 C 3,4 C 71 % 1019,4 hPa 0,0 mm 1,2 km/h (1 Bft) W 270 0 min -1,2 C 10,7 km/h (2 Bft)
15.05.2016 23:30 3,8 C 3,6 C 71 % 1019,4 hPa 0,0 mm 3,3 km/h (1 Bft) W-NW 292 0 min -1,0 C 6,3 km/h (2 Bft)
15.05.2016 23:35 3,8 C 3,6 C 70 % 1019,6 hPa 0,0 mm 3,3 km/h (1 Bft) W-SW 247 0 min -1,2 C 0,0 km/h (0 Bft)
15.05.2016 23:40 3,7 C 3,5 C 70 % 1019,6 hPa 0,0 mm 1,8 km/h (1 Bft) W-SW 247 0 min -1,3 C 6,0 km/h (2 Bft)
15.05.2016 23:45 3,7 C 3,5 C 70 % 1019,6 hPa 0,0 mm 1,5 km/h (1 Bft) W 270 0 min -1,3 C 0,0 km/h (0 Bft)
15.05.2016 23:50 3,7 C 3,5 C 70 % 1019,6 hPa 0,0 mm 1,5 km/h (1 Bft) SW 225 0 min -1,3 C 6,6 km/h (2 Bft)
15.05.2016 23:55 3,8 C 3,6 C 70 % 1019,6 hPa 0,0 mm 2,7 km/h (1 Bft) W-SW 247 0 min -1,2 C 5,1 km/h (1 Bft)
_ Min-Zeit 06:20 06:30 16:35 00:10 - 04:50 - - - 23:05 23:45
Minimum _ 3,5 C 3,2 C 60 % 1013,9 hPa - 0,0 km/h (0 Bft) - - - -1,3 C 0,0 km/h (0 Bft)
_ Max-Zeit 13:35 13:40 04:50 23:55 00:05 14:20 - - 13:50 13:35 14:15
Maximum _ 10,3 C 12,2 C 91 % 1019,6 hPa 0,7 mm 20,6 km/h
W-NW (4 Bft)
- - 5 min 5,7 C 36,7 km/h
NW (5 Bft)
Durchschnitt _ 5,5 C 5,7 C 78 % 1016,8 hPa #0,7 mm 6,2 km/h (2 Bft) W-SW - #1:30 h 1,8 C 8,5 km/h (2 Bft)